Time,TemperatureF,DewpointF,PressureIn,WindDirection,WindDirectionDegrees,WindSpeedMPH,WindSpeedGustMPH,Humidity,HourlyPrecipIn,Conditions,Clouds,dailyrainin,SoftwareType,DateUTC
2013-02-11 00:00:00,71.2,61.7,30.05,ESE,112,6.3,-999.0,72,-99.99,,,0.00,Acu-Link.com,2013-02-11 05:00:00,
2013-02-11 00:15:00,70.9,61.8,30.05,ESE,112,4.2,-999.0,73,-99.99,,,0.00,Acu-Link.com,2013-02-11 05:15:00,
2013-02-11 00:31:00,70.9,61.8,30.05,ESE,112,8.9,-999.0,73,-99.99,,,0.00,Acu-Link.com,2013-02-11 05:31:00,
2013-02-11 00:46:00,70.5,61.8,30.05,ESE,112,4.2,-999.0,74,-99.99,,,0.00,Acu-Link.com,2013-02-11 05:46:00,
2013-02-11 01:01:00,70.0,61.3,30.05,SSE,157,5.3,-999.0,74,-99.99,,,0.00,Acu-Link.com,2013-02-11 06:01:00,
2013-02-11 01:16:00,69.6,60.9,30.04,SSE,157,2.2,-999.0,74,-99.99,,,0.00,Acu-Link.com,2013-02-11 06:16:00,
2013-02-11 01:31:00,69.3,61.4,30.04,SSE,157,3.2,-999.0,76,-99.99,,,0.00,Acu-Link.com,2013-02-11 06:31:00,
2013-02-11 01:46:00,69.3,61.4,30.04,SSE,157,4.2,-999.0,76,-99.99,,,0.00,Acu-Link.com,2013-02-11 06:46:00,
2013-02-11 02:01:00,69.1,61.6,30.04,SSE,157,3.2,-999.0,77,-99.99,,,0.00,Acu-Link.com,2013-02-11 07:01:00,
2013-02-11 02:17:00,69.1,61.9,30.04,SSE,157,3.2,-999.0,78,-99.99,,,0.00,Acu-Link.com,2013-02-11 07:17:00,
2013-02-11 02:32:00,68.5,61.7,30.04,SSE,157,2.7,-999.0,79,-99.99,,,0.00,Acu-Link.com,2013-02-11 07:32:00,
2013-02-11 02:47:00,68.4,61.6,30.03,ESE,112,4.7,-999.0,79,-99.99,,,0.00,Acu-Link.com,2013-02-11 07:47:00,
2013-02-11 03:02:00,68.2,61.4,30.03,ESE,112,4.2,-999.0,79,-99.99,,,0.00,Acu-Link.com,2013-02-11 08:02:00,
2013-02-11 03:17:00,68.2,61.4,30.02,ESE,112,1.7,-999.0,79,-99.99,,,0.00,Acu-Link.com,2013-02-11 08:17:00,
2013-02-11 03:32:00,67.8,60.7,30.02,SSE,157,2.2,-999.0,78,-99.99,,,0.00,Acu-Link.com,2013-02-11 08:32:00,
2013-02-11 03:47:00,67.5,60.8,30.03,ESE,112,2.2,-999.0,79,-99.99,,,0.00,Acu-Link.com,2013-02-11 08:47:00,
2013-02-11 04:16:00,67.3,60.9,30.02,ESE,112,2.2,-999.0,80,-99.99,,,0.00,Acu-Link.com,2013-02-11 09:16:00,
2013-02-11 04:32:00,67.3,61.3,30.02,ESE,112,2.7,-999.0,81,-99.99,,,0.00,Acu-Link.com,2013-02-11 09:32:00,
2013-02-11 04:47:00,67.1,61.1,30.01,SE,135,3.2,-999.0,81,-99.99,,,0.00,Acu-Link.com,2013-02-11 09:47:00,
2013-02-11 05:02:00,67.3,61.6,30.01,ESE,112,2.7,-999.0,82,-99.99,,,0.00,Acu-Link.com,2013-02-11 10:02:00,
2013-02-11 05:17:00,67.3,62.0,30.01,ESE,112,2.2,-999.0,83,-99.99,,,0.00,Acu-Link.com,2013-02-11 10:17:00,
2013-02-11 05:32:00,67.8,62.4,30.00,ESE,112,3.7,-999.0,83,-99.99,,,0.00,Acu-Link.com,2013-02-11 10:32:00,
2013-02-11 05:48:00,68.2,62.5,30.01,ESE,112,5.3,-999.0,82,-99.99,,,0.00,Acu-Link.com,2013-02-11 10:48:00,
2013-02-11 06:03:00,68.4,62.3,30.02,SE,135,3.2,-999.0,81,-99.99,,,0.00,Acu-Link.com,2013-02-11 11:03:00,
2013-02-11 06:18:00,68.4,62.3,30.03,ESE,112,3.2,-999.0,81,-99.99,,,0.00,Acu-Link.com,2013-02-11 11:18:00,
2013-02-11 06:33:00,68.4,62.3,30.03,SE,135,3.2,-999.0,81,-99.99,,,0.00,Acu-Link.com,2013-02-11 11:33:00,
2013-02-11 06:48:00,68.5,62.4,30.03,SE,135,4.7,-999.0,81,-99.99,,,0.00,Acu-Link.com,2013-02-11 11:48:00,
2013-02-11 07:03:00,68.9,62.5,30.03,ESE,112,1.7,-999.0,80,-99.99,,,0.00,Acu-Link.com,2013-02-11 12:03:00,
2013-02-11 07:18:00,69.4,62.6,30.04,SSE,157,2.2,-999.0,79,-99.99,,,0.00,Acu-Link.com,2013-02-11 12:18:00,
2013-02-11 07:33:00,70.5,62.6,30.05,ESE,112,3.7,-999.0,76,-99.99,,,0.00,Acu-Link.com,2013-02-11 12:33:00,
2013-02-11 07:48:00,72.3,62.8,30.06,ESE,112,2.2,-999.0,72,-99.99,,,0.00,Acu-Link.com,2013-02-11 12:48:00,
2013-02-11 08:04:00,73.4,62.2,30.06,ESE,112,4.2,-999.0,68,-99.99,,,0.00,Acu-Link.com,2013-02-11 13:04:00,
2013-02-11 08:19:00,73.2,62.0,30.06,SSE,157,4.7,-999.0,68,-99.99,,,0.00,Acu-Link.com,2013-02-11 13:19:00,
2013-02-11 08:34:00,73.9,62.2,30.07,ESE,112,2.2,-999.0,67,-99.99,,,0.00,Acu-Link.com,2013-02-11 13:34:00,
2013-02-11 08:49:00,74.5,62.8,30.06,SSE,157,6.8,-999.0,67,-99.99,,,0.00,Acu-Link.com,2013-02-11 13:49:00,
2013-02-11 09:04:00,74.8,62.7,30.07,ESE,112,10.4,-999.0,66,-99.99,,,0.00,Acu-Link.com,2013-02-11 14:04:00,
2013-02-11 09:19:00,74.8,62.2,30.07,ESE,112,7.3,-999.0,65,-99.99,,,0.00,Acu-Link.com,2013-02-11 14:19:00,
2013-02-11 09:35:00,75.7,63.1,30.07,SE,135,6.8,-999.0,65,-99.99,,,0.00,Acu-Link.com,2013-02-11 14:35:00,
2013-02-11 09:50:00,76.1,62.6,30.07,ESE,112,7.3,-999.0,63,-99.99,,,0.00,Acu-Link.com,2013-02-11 14:50:00,
2013-02-11 10:05:00,76.3,63.2,30.08,ESE,112,5.3,-999.0,64,-99.99,,,0.00,Acu-Link.com,2013-02-11 15:05:00,
2013-02-11 10:20:00,75.7,63.1,30.07,SE,135,6.3,-999.0,65,-99.99,,,0.00,Acu-Link.com,2013-02-11 15:20:00,
2013-02-11 10:35:00,76.3,63.2,30.07,SE,135,14.5,-999.0,64,-99.99,,,0.00,Acu-Link.com,2013-02-11 15:35:00,
2013-02-11 10:50:00,78.3,64.2,30.07,South,180,6.8,-999.0,62,-99.99,,,0.00,Acu-Link.com,2013-02-11 15:50:00,
2013-02-11 11:05:00,77.9,63.8,30.07,South,180,8.9,-999.0,62,-99.99,,,0.00,Acu-Link.com,2013-02-11 16:05:00,
2013-02-11 11:20:00,77.9,64.3,30.06,ESE,112,7.8,-999.0,63,-99.99,,,0.00,Acu-Link.com,2013-02-11 16:20:00,
2013-02-11 11:35:00,76.1,63.9,30.06,SE,135,3.2,-999.0,66,-99.99,,,0.00,Acu-Link.com,2013-02-11 16:35:00,
2013-02-11 11:51:00,76.5,64.3,30.06,SE,135,6.3,-999.0,66,-99.99,,,0.00,Acu-Link.com,2013-02-11 16:51:00,
2013-02-11 12:06:00,78.3,64.2,30.06,East,90,8.9,-999.0,62,-99.99,,,0.00,Acu-Link.com,2013-02-11 17:06:00,
2013-02-11 12:21:00,78.6,64.9,30.05,ESE,112,6.8,-999.0,63,-99.99,,,0.00,Acu-Link.com,2013-02-11 17:21:00,
2013-02-11 12:36:00,77.4,64.7,30.04,ESE,112,3.7,-999.0,65,-99.99,,,0.00,Acu-Link.com,2013-02-11 17:36:00,
2013-02-11 12:51:00,78.6,64.9,30.03,East,90,10.4,-999.0,63,-99.99,,,0.00,Acu-Link.com,2013-02-11 17:51:00,
2013-02-11 13:06:00,78.1,64.9,30.03,South,180,5.8,-999.0,64,-99.99,,,0.00,Acu-Link.com,2013-02-11 18:06:00,
2013-02-11 13:21:00,77.9,64.7,30.02,East,90,10.4,-999.0,64,-99.99,,,0.00,Acu-Link.com,2013-02-11 18:21:00,
2013-02-11 13:36:00,79.2,65.5,30.01,SSE,157,7.8,-999.0,63,-99.99,,,0.00,Acu-Link.com,2013-02-11 18:36:00,
2013-02-11 13:51:00,77.2,64.5,30.00,ESE,112,5.8,-999.0,65,-99.99,,,0.00,Acu-Link.com,2013-02-11 18:51:00,
2013-02-11 14:07:00,77.2,64.9,29.99,ESE,112,8.9,-999.0,66,-99.99,,,0.00,Acu-Link.com,2013-02-11 19:07:00,
2013-02-11 14:22:00,77.9,64.7,29.99,ESE,112,10.4,-999.0,64,-99.99,,,0.00,Acu-Link.com,2013-02-11 19:22:00,
2013-02-11 14:37:00,77.2,64.5,29.99,SE,135,7.3,-999.0,65,-99.99,,,0.00,Acu-Link.com,2013-02-11 19:37:00,
2013-02-11 14:52:00,77.9,64.7,29.99,South,180,11.4,-999.0,64,-99.99,,,0.00,Acu-Link.com,2013-02-11 19:52:00,
2013-02-11 15:07:00,76.3,64.1,29.98,ESE,112,8.9,-999.0,66,-99.99,,,0.00,Acu-Link.com,2013-02-11 20:07:00,
2013-02-11 15:22:00,77.4,64.7,29.99,SSE,157,5.8,-999.0,65,-99.99,,,0.00,Acu-Link.com,2013-02-11 20:22:00,
2013-02-11 15:37:00,77.7,65.0,29.98,ESE,112,9.4,-999.0,65,-99.99,,,0.00,Acu-Link.com,2013-02-11 20:37:00,
2013-02-11 15:53:00,76.6,64.4,29.97,SE,135,8.9,-999.0,66,-99.99,,,0.00,Acu-Link.com,2013-02-11 20:53:00,
2013-02-11 16:08:00,77.5,64.8,29.97,SW,225,10.4,-999.0,65,-99.99,,,0.00,Acu-Link.com,2013-02-11 21:08:00,
2013-02-11 16:23:00,77.0,64.8,29.97,ESE,112,6.8,-999.0,66,-99.99,,,0.00,Acu-Link.com,2013-02-11 21:23:00,
2013-02-11 16:38:00,76.1,64.3,29.97,ESE,112,9.4,-999.0,67,-99.99,,,0.00,Acu-Link.com,2013-02-11 21:38:00,
2013-02-11 16:53:00,75.6,63.9,29.98,South,180,5.8,-999.0,67,-99.99,,,0.00,Acu-Link.com,2013-02-11 21:53:00,
2013-02-11 17:08:00,75.4,63.7,29.97,South,180,6.8,-999.0,67,-99.99,,,0.00,Acu-Link.com,2013-02-11 22:08:00,
2013-02-11 17:24:00,74.7,63.8,29.97,SSE,157,7.3,-999.0,69,-99.99,,,0.00,Acu-Link.com,2013-02-11 22:24:00,
2013-02-11 17:39:00,74.5,63.6,29.97,ESE,112,9.9,-999.0,69,-99.99,,,0.00,Acu-Link.com,2013-02-11 22:39:00,
2013-02-11 17:54:00,73.8,63.8,29.96,ESE,112,4.7,-999.0,71,-99.99,,,0.00,Acu-Link.com,2013-02-11 22:54:00,
2013-02-11 18:09:00,73.2,63.6,29.96,ESE,112,3.7,-999.0,72,-99.99,,,0.00,Acu-Link.com,2013-02-11 23:09:00,
2013-02-11 18:24:00,72.7,63.5,29.96,SSW,202,5.3,-999.0,73,-99.99,,,0.00,Acu-Link.com,2013-02-11 23:24:00,
2013-02-11 18:39:00,72.1,63.3,29.96,SE,135,3.7,-999.0,74,-99.99,,,0.00,Acu-Link.com,2013-02-11 23:39:00,
2013-02-11 18:54:00,72.0,63.2,29.96,SSE,157,4.2,-999.0,74,-99.99,,,0.00,Acu-Link.com,2013-02-11 23:54:00,
2013-02-11 19:09:00,71.6,63.2,29.97,SSE,157,2.2,-999.0,75,-99.99,,,0.00,Acu-Link.com,2013-02-12 00:09:00,
2013-02-11 19:24:00,71.4,63.1,29.97,SSE,157,3.7,-999.0,75,-99.99,,,0.00,Acu-Link.com,2013-02-12 00:24:00,
2013-02-11 19:40:00,71.2,63.2,29.97,SW,225,3.7,-999.0,76,-99.99,,,0.00,Acu-Link.com,2013-02-12 00:40:00,
2013-02-11 19:55:00,71.2,63.6,29.98,SSE,157,4.2,-999.0,77,-99.99,,,0.00,Acu-Link.com,2013-02-12 00:55:00,
2013-02-11 20:10:00,70.7,63.5,29.99,SE,135,0.0,-999.0,78,-99.99,,,0.00,Acu-Link.com,2013-02-12 01:10:00,
2013-02-11 20:25:00,70.5,64.0,29.98,SE,135,2.2,-999.0,80,-99.99,,,0.00,Acu-Link.com,2013-02-12 01:25:00,
2013-02-11 20:40:00,70.3,64.2,29.98,SSE,157,2.7,-999.0,81,-99.99,,,0.00,Acu-Link.com,2013-02-12 01:40:00,
2013-02-11 20:55:00,70.3,64.5,29.99,SSE,157,2.7,-999.0,82,-99.99,,,0.00,Acu-Link.com,2013-02-12 01:55:00,
2013-02-11 21:10:00,70.2,64.8,29.99,SSE,157,1.7,-999.0,83,-99.99,,,0.00,Acu-Link.com,2013-02-12 02:10:00,
2013-02-11 21:25:00,70.2,64.8,29.99,SSE,157,2.2,-999.0,83,-99.99,,,0.00,Acu-Link.com,2013-02-12 02:25:00,
2013-02-11 21:40:00,69.8,64.7,29.98,SE,135,1.7,-999.0,84,-99.99,,,0.00,Acu-Link.com,2013-02-12 02:40:00,
2013-02-11 21:56:00,69.6,64.9,29.99,SE,135,1.7,-999.0,85,-99.99,,,0.00,Acu-Link.com,2013-02-12 02:56:00,
2013-02-11 22:11:00,69.6,64.9,29.99,SE,135,2.2,-999.0,85,-99.99,,,0.00,Acu-Link.com,2013-02-12 03:11:00,
2013-02-11 22:26:00,69.3,64.9,29.98,SE,135,2.7,-999.0,86,-99.99,,,0.00,Acu-Link.com,2013-02-12 03:26:00,
2013-02-11 22:41:00,69.1,64.7,29.98,SE,135,3.7,-999.0,86,-99.99,,,0.00,Acu-Link.com,2013-02-12 03:41:00,
2013-02-11 22:56:00,69.3,64.9,29.98,SE,135,2.2,-999.0,86,-99.99,,,0.00,Acu-Link.com,2013-02-12 03:56:00,
2013-02-11 23:11:00,69.4,64.7,29.97,SSE,157,1.7,-999.0,85,-99.99,,,0.00,Acu-Link.com,2013-02-12 04:11:00,
2013-02-11 23:26:00,69.1,64.4,29.98,SSE,157,2.7,-999.0,85,-99.99,,,0.00,Acu-Link.com,2013-02-12 04:26:00,
2013-02-11 23:41:00,69.3,64.6,29.98,SSE,157,2.7,-999.0,85,-99.99,,,0.00,Acu-Link.com,2013-02-12 04:41:00,
2013-02-11 23:56:00,69.1,64.4,29.98,SSE,157,3.2,-999.0,85,-99.99,,,0.00,Acu-Link.com,2013-02-12 04:56:00,